#timestamp,LO_Frequency,Hit,StdDev 
1560319215.9,286046996.2,Y
1560319235.7,286046997.6,P
1560319255.5,286046995.3,P
1560319275.3,286046997.9,N
1560319295.2,286046993.8,Y
1560319315.0,286046995.8,P
1560319315.9,286046995.8,P
1560319335.7,286046995.6,P
1560319355.6,286046997.0,Y
1560319375.4,286046998.1,P
1560319395.2,286046998.3,N
1560319415.1,286046997.3,N
1560319416.0,286046997.3,Y
1560319435.8,286046998.2,P
1560319455.7,286046998.7,P
1560319475.5,286046998.8,N
1560319495.3,286046995.6,Y
1560319515.2,286046994.1,P
1560319535.9,286046996.2,N
1560319555.7,286046995.5,N
1560319575.5,286046995.5,N
1560319595.4,286046993.3,Y
1560319615.2,286046997.8,P
1560319635.0,286046995.2,P
1560319636.0,286046995.2,P
1560319655.8,286046995.4,Y
1560319675.6,286046999.6,P
1560319695.5,286046997.1,N
1560319715.3,286046999.0,N
1560319735.1,286047000.4,N
1560319755.8,286047002.0,N
1560319775.7,286047000.8,N
1560319795.5,286046999.6,N
1560319815.3,286046998.0,N
1560319835.2,286046995.8,N
1560319855.9,286046994.4,N
1560319875.7,286046990.5,Y
1560319895.6,286046992.7,P
1560319915.4,286046990.9,P
1560319935.2,286046988.7,P
1560319955.1,286046988.3,Y
1560319956.0,286046988.3,P
1560319975.8,286046993.7,N
1560319995.6,286046992.9,P
1560320015.5,286046994.8,N
1560320035.3,286046991.8,Y
1560320055.1,286046997.3,P
1560320075.9,286046997.6,N
1560320095.7,286046995.2,N
1560320115.5,286046993.5,Y
1560320135.4,286046999.6,P
1560320155.2,286046997.6,N
1560320175.0,286046993.7,P
1560320175.9,286046993.7,N
1560320195.8,286046994.8,N
1560320215.6,286046990.6,Y
1560320235.4,286046994.2,P
1560320255.3,286046992.5,P
1560320275.1,286046992.8,P
1560320276.0,286046992.8,Y
1560320295.8,286046997.8,P
1560320315.7,286046995.8,N
1560320335.5,286046997.6,N
1560320355.3,286046998.2,N
1560320375.2,286046997.8,N
1560320395.9,286046993.4,Y
1560320415.7,286046998.7,P
1560320435.6,286046997.0,P
1560320455.4,286046995.3,P
1560320475.2,286046994.4,Y
1560320495.1,286046993.8,P
1560320496.0,286046993.8,P
1560320515.8,286046990.5,P
1560320535.6,286046990.4,Y
1560320555.5,286046997.3,P
1560320575.3,286046998.6,N
1560320595.1,286047000.2,N
1560320615.9,286046999.7,N
1560320635.7,286047002.7,N
1560320655.5,286047000.0,N
1560320675.3,286046999.5,N
1560320695.2,286046993.3,N
1560320715.9,286046991.7,N
1560320735.7,286046990.9,N
1560320755.6,286046989.9,N
1560320775.4,286046989.7,N
1560320795.2,286046987.8,N
1560320815.1,286046985.5,Y
1560320816.0,286046985.5,P
1560320835.8,286046987.1,N
1560320855.6,286046985.8,P
1560320875.5,286046984.3,Y
1560320895.3,286046993.3,P
1560320915.1,286046994.6,N
1560320935.9,286046993.0,N
1560320955.7,286046993.1,N
1560320975.5,286046991.3,Y
1560320995.4,286046995.6,P
1560321015.2,286046995.5,N
1560321035.0,286046996.1,N
1560321035.9,286046996.1,N
1560321055.8,286046995.4,Y
1560321075.6,286047000.7,P
1560321095.4,286047000.6,N
1560321115.3,286047000.6,N
1560321135.1,286047001.1,N
1560321136.0,286047001.1,N
1560321155.8,286046999.5,N
1560321175.6,286046997.4,N
1560321195.5,286046996.4,N
1560321215.3,286046990.6,Y
1560321235.1,286046990.9,P
1560321255.9,286046989.7,N
1560321275.7,286046987.5,N
1560321295.5,286046985.4,Y
1560321315.4,286046993.7,P
1560321335.2,286046995.6,P
1560321355.0,286046994.7,P
1560321356.0,286046994.7,Y
1560321375.8,286046999.0,P
1560321395.6,286046996.8,N
1560321415.4,286046996.2,N
1560321435.3,286046994.2,Y
1560321455.1,286046996.8,P
1560321475.8,286046997.7,P
1560321495.7,286046995.7,P
1560321515.5,286046997.1,Y
1560321535.3,286046999.0,P
1560321555.2,286046998.1,N
1560321575.0,286046996.5,P
1560321575.9,286046996.5,Y
1560321595.7,286046998.1,P
1560321615.6,286046998.4,P
1560321635.4,286046999.6,N
1560321655.2,286046999.4,N
1560321675.1,286046998.4,N
1560321676.0,286046998.4,N
1560321695.8,286046996.7,Y
1560321715.6,286046999.2,P
1560321735.5,286046997.0,P
1560321755.3,286046997.1,P
1560321775.1,286046996.7,Y
1560321795.9,286046997.4,P
1560321815.7,286046995.9,P
1560321835.5,286046996.2,P
1560321855.4,286046994.0,Y
1560321875.2,286046997.6,P
1560321895.0,286046996.0,P
1560321895.9,286046996.0,P
1560321915.8,286046991.7,Y
1560321935.6,286046995.2,P
1560321955.4,286046993.5,P
1560321975.3,286046992.0,P
1560321995.1,286046990.6,Y
1560322015.8,286046996.6,P
1560322035.7,286047000.5,N
1560322055.5,286047000.1,N
1560322075.3,286046999.7,N
1560322095.2,286046999.1,N
1560322115.9,286046995.4,N
1560322135.7,286046995.5,N
1560322155.6,286046993.5,N
1560322175.4,286046996.4,N
1560322195.2,286046994.1,N
1560322215.0,286046994.7,N
1560322215.9,286046994.7,N
1560322235.8,286046993.8,N
1560322255.6,286046994.3,N
1560322275.4,286046992.2,Y
1560322295.3,286046998.0,P
1560322315.1,286046995.0,P
1560322335.8,286046995.5,P
1560322355.7,286046996.3,Y
1560322375.5,286046994.9,P
1560322395.3,286046996.0,P
1560322415.2,286046993.3,P
1560322435.9,286046993.7,Y
1560322455.7,286046998.7,P
1560322475.6,286046999.2,N
1560322495.4,286046997.9,N
1560322515.2,286046993.7,Y
1560322535.1,286046995.7,P
1560322536.0,286046995.7,P
1560322555.8,286046993.6,P
1560322575.6,286046992.0,Y
1560322595.5,286046996.8,P
1560322615.3,286046995.5,P
1560322635.1,286046993.6,P
1560322655.9,286046994.0,Y
1560322675.7,286046998.8,P
1560322695.5,286046999.3,N
1560322715.4,286046998.4,N
1560322735.2,286046996.6,N
1560322755.0,286046997.5,N
1560322755.9,286046997.5,N
1560322775.8,286046994.9,Y
1560322795.6,286046999.6,P
